Terminal Aerodrome Forecast
Issued by NWS

Home | Current Version | Previous Version | Text Only | Print | Product List | Glossary On
Versions: 1 2 3 4 5 6 7 8 9 10 11 12 13 14 15 16
395
FTUS45 KPSR 231723
TAFIPL
TAF
KIPL 231723Z 2318/2418 27018G26KT P6SM FEW080
     FM232100 26014KT P6SM SKC
     FM240500 27008KT P6SM SKC
     FM241600 VRB04KT P6SM SKC=

USA.gov is the U.S. government's official web portal to all federal, state and local government web resources and services.